Regional Weather Roundup
Issued by NWS Burlington, VT

Home | Current Version | Previous Version | Text Only | Print | Product List | Glossary On
Versions: 1 2 3 4 5 6 7 8 9 10 11 12 13 14 15 16 17 18 19 20 21 22 23 24 25 26 27 28 29 30 31 32 33 34 35 36 37 38 39 40 41 42 43 44 45 46 47 48 49 50
000
ASUS41 KBTV 051330
RWRBTV
VERMONT REGIONAL WEATHER ROUNDUP
NATIONAL WEATHER SERVICE BURLINGTON VT
900 AM EDT SAT SEP 05 2015

NOTE: "FAIR" INDICATES FEW OR NO CLOUDS BELOW 12,000 FEET WITH NO
SIGNIFICANT WEATHER AND/OR OBSTRUCTIONS TO VISIBILITY.

* THESE REPORTS ARE NOT UNDER NWS QUALITY CONTROL AND/OR DO NOT
  REPORT WEATHER SUCH AS PRECIPITATION AND FOG.

VTZ001>019-051400-
_____VERMONT_____


CITY           SKY/WX    TMP DP  RH WIND       PRES   REMARKS
BURLINGTON     MOSUNNY   67  58  72 S7        30.29S
MONTPELIER     PTSUNNY   57  56  96 CALM      30.35F
MORRISVILLE    MOSUNNY   60  57  89 S6        30.31F
ST. JOHNSBURY*   N/A     55  53  93 MISG      30.31S
LYNDONVILLE*   FAIR      59  55  88 CALM      30.34S
MIDDLEBURY*    FAIR      71  60  67 CALM      30.30S
RUTLAND*       SUNNY     64  43  45 CALM      30.32S
SPRINGFIELD    CLOUDY    55  55 100 CALM      30.34S FOG
HIGHGATE*      FAIR      68  59  72 S5        30.26F
NEWPORT*       FAIR      65  59  81 CALM      30.31S
BENNINGTON     SUNNY     66  56  70 CALM      30.32S
GALLUP MILLS*    N/A     64 N/A N/A MISG        N/A
MT. MANSFIELD*   N/A     59 N/A N/A W6          N/A

_____LAKE CHAMPLAIN_____


CITY           SKY/WX    TMP DP  RH WIND       PRES   REMARKS
COLCHESTER RF*   N/A     66  63  88 S15         N/A
DIAMOND ISL*     N/A     64  61  88 S7          N/A

$$

NYZ007-026>031-035-052-083-051400-
_____NORTHERN NEW YORK_____


CITY           SKY/WX    TMP DP  RH WIND       PRES   REMARKS
PLATTSBURGH    SUNNY     65  58  78 S3        30.27F
SARANAC LAKE   SUNNY     62  55  77 S3        30.30S
MASSENA        SUNNY     65  55  70 CALM      30.25F
OGDENSBURG*    CLOUDY    70  63  78 CALM      30.24F
POTSDAM*       SUNNY     73  68  83 SW7       30.24F
STARK FALLS*     N/A     73 N/A N/A SE8         N/A
WATERTOWN      CLOUDY    73  66  78 CALM      30.23R HAZE
FT DRUM        MOSUNNY   70  63  78 SE12      30.25R
ALBANY         MOSUNNY   68  55  63 S8        30.31R
GLENS FALLS    SUNNY     67  60  78 CALM      30.30F

$$
NHZ002-005-011-051400-
_____NEW HAMPSHIRE_____


CITY           SKY/WX    TMP DP  RH WIND       PRES   REMARKS
LEBANON        CLOUDY    57  55  93 SW3       30.32S FOG
KEENE          SUNNY     59  50  72 CALM      30.34S
MT WASHINGTON  MOSUNNY   57  21  24 E6          N/A
PLYMOUTH       CLOUDY    56  55  97 CALM      30.32S
WHITEFIELD     SUNNY     61  55  81 CALM      30.32F

$$

_____REGIONAL QUEBEC LOCATIONS_____


CITY           SKY/WX    TMP DP  RH WIND       PRES   REMARKS
MONTREAL       MOSUNNY   66  55  68 E5        30.25F
QUEBEC CITY    MOSUNNY   63  55  77 VRB2      30.27S
SHERBROOKE     SUNNY     59  54  82 CALM      30.29F

_____REGIONAL ONTARIO LOCATIONS_____


CITY           SKY/WX    TMP DP  RH WIND       PRES   REMARKS
OTTAWA         MOSUNNY   64  55  72 E6        30.25F

______KEY______
VSB  - VISIBILITY IN MILES
WCI  - WIND CHILL INDEX
HX   - HEAT INDEX
$$
NNNN



USA.gov is the U.S. government's official web portal to all federal, state and local government web resources and services.